Wind_Speed
4 4 4 4 5 5 4 4 3 3 3 3 3 2 2 2 3 3 3 4 4 4 4 4 4 4 4 4 5 5 6 6 7 7 7 8 8 9 10 9 9 10 10
5 4 4 5 4 4 4 4 4 3 3 4 3 3 3 3 3 3 4 4 5 5 5 5 4 4 4 5 5 6 6 6 6 7 8 8 9 9 9 10 10 9 9
5 5 5 5 4 4 4 4 4 4 4 4 4 4 4 4 4 4 5 5 5 5 5 5 5 5 5 5 6 6 7 6 6 7 8 9 9 8 8 8 8 8 8
6 6 6 5 5 4 5 5 5 5 5 4 5 5 5 5 5 5 6 6 7 6 6 6 6 6 6 6 7 7 7 6 6 7 7 8 8 8 8 8 8 8 9
6 6 7 5 5 5 5 5 5 5 5 6 6 6 6 6 6 7 8 8 8 8 8 7 7 7 7 7 8 8 7 7 7 8 8 8 8 8 8 7 8 8 9
7 7 7 6 6 6 7 7 7 7 6 6 6 7 7 7 7 7 8 9 8 8 8 8 7 7 8 8 8 8 8 8 9 9 8 9 8 8 8 9 9 9 10
7 7 7 7 8 8 8 8 8 8 8 7 7 8 9 9 9 9 9 9 9 9 8 8 8 8 8 9 9 9 9 9 10 10 10 9 9 9 9 9 10 10 10
8 8 7 8 9 9 8 9 9 9 9 9 9 10 10 10 10 10 10 10 9 9 10 10 9 9 9 9 9 10 9 9 10 10 9 9 9 9 10 9 10 10 10
9 8 8 8 9 9 9 10 10 10 11 11 11 11 11 11 11 11 11 11 11 11 10 10 10 10 11 11 10 10 10 11 11 10 9 8 8 8 9 9 10 10 10
10 10 9 9 9 9 9 10 10 11 12 13 13 12 12 12 11 11 11 11 11 11 11 11 11 12 11 10 11 11 11 11 11 11 9 9 9 9 9 9 10 11 10
11 11 11 10 10 10 10 9 10 11 12 12 12 12 12 12 11 11 11 11 12 11 11 11 11 11 11 11 11 11 12 12 12 11 10 9 10 10 10 10 10 11 11
11 11 11 12 11 11 11 11 11 11 12 12 12 12 12 12 11 11 12 12 12 12 12 11 11 11 12 12 11 11 11 12 12 11 10 10 10 10 10 11 11 11 11
12 12 11 11 12 12 12 12 12 12 11 12 12 12 13 13 13 13 13 13 13 13 13 13 12 12 13 13 12 11 11 12 12 11 11 11 10 11 11 11 12 11 11
14 14 14 13 12 13 13 14 13 13 13 13 13 14 14 14 13 13 14 14 14 14 14 14 14 13 13 13 13 13 12 12 12 12 12 12 11 12 12 12 12 11 10
15 14 14 15 14 14 15 15 15 14 14 14 14 14 15 15 15 14 14 15 15 15 15 15 15 15 14 14 14 14 14 14 14 13 13 12 12 12 12 12 12 11 10
15 14 15 15 16 16 16 16 16 15 15 15 15 15 15 15 15 15 15 15 15 16 16 15 16 15 15 15 15 15 15 15 14 14 13 13 13 12 12 12 12 11 11
16 16 16 16 17 18 18 18 18 17 17 16 16 16 16 16 16 16 16 16 16 15 15 16 16 16 17 17 17 16 15 15 15 14 14 14 14 13 12 12 12 12 12
18 18 19 19 19 20 20 19 19 19 19 18 18 18 18 18 17 17 17 17 17 16 16 16 17 17 18 18 17 17 16 16 16 15 16 15 14 14 14 13 13 13 13
21 21 21 20 21 22 22 21 21 21 21 21 20 20 20 19 19 18 18 17 17 17 17 17 17 17 18 18 18 17 17 17 16 16 17 16 16 15 15 15 15 15 15
21 22 23 22 22 23 24 23 23 23 23 23 22 22 21 20 20 20 19 19 18 18 17 18 18 18 19 19 19 18 18 18 17 17 18 17 17 17 17 17 16 16 17
23 23 23 23 23 24 25 25 25 24 23 24 24 23 23 22 22 21 21 20 20 19 19 18 19 19 19 19 19 19 20 20 20 19 19 19 19 19 19 19 18 19 19
24 25 25 25 25 25 25 26 26 26 25 24 25 25 25 24 23 22 22 22 21 21 21 20 20 20 20 20 20 21 21 21 21 21 21 20 20 20 20 20 19 19 20
25 25 26 26 27 27 26 26 26 27 26 26 26 26 26 25 25 24 24 23 23 23 23 23 22 22 22 22 22 22 22 22 22 22 22 22 22 21 21 21 21 21 21
26 26 26 27 27 27 27 27 28 28 27 26 26 26 26 26 26 25 25 25 24 24 23 23 23 24 24 23 23 23 23 23 23 23 23 23 23 22 22 22 22 21 21
26 27 27 28 28 28 28 27 27 27 27 28 28 27 27 26 26 26 26 26 25 25 25 24 24 24 24 24 24 24 24 24 23 24 23 23 23 24 23 22 22 22 21
26 27 27 28 28 28 28 28 27 27 28 28 28 28 28 27 27 27 26 26 26 26 26 25 25 24 24 25 25 24 25 24 24 23 24 23 24 24 24 23 23 22 21
Wind_Direction
308 306 299 295 299 303 306 314 317 313 309 308 297 298 297 279 270 269 267 275 283 293 296 288 278 269 265 262 268 270 273 278 277 273 272 274 276 277 271 270 271 273 276
300 307 307 299 296 302 306 309 312 313 308 298 289 289 292 283 275 270 272 283 287 293 300 296 284 273 275 272 271 277 277 280 279 277 275 277 278 279 273 272 273 275 275
301 305 309 303 296 296 292 291 297 298 293 288 291 287 288 289 281 283 280 282 285 292 297 296 292 285 277 273 273 277 278 280 280 278 279 278 278 281 278 278 278 276 277
301 305 303 299 289 289 282 279 284 288 284 284 291 290 284 281 285 283 282 285 283 289 292 291 287 279 271 271 273 274 275 275 277 279 285 282 278 281 281 283 282 281 280
300 306 302 296 283 281 279 276 275 279 281 279 284 292 293 287 283 281 280 282 282 285 288 285 280 274 271 270 271 275 274 275 278 280 284 287 283 279 282 283 283 281 280
301 303 299 292 279 275 277 276 272 274 280 281 286 291 292 290 282 282 282 283 282 281 280 280 277 273 271 272 272 273 276 274 278 282 283 287 285 278 278 282 285 282 281
302 305 295 286 278 274 272 271 267 272 279 281 283 286 287 287 287 288 283 279 280 279 280 282 277 275 272 273 270 271 274 274 279 283 283 283 281 280 280 281 283 285 283
294 300 297 288 281 277 272 270 270 272 276 279 280 283 287 288 289 288 284 281 284 284 281 279 275 275 272 273 270 270 268 271 280 282 281 281 279 281 280 279 280 281 280
288 291 291 288 281 276 275 271 270 270 275 279 281 283 284 289 291 287 282 280 281 283 282 281 274 274 273 274 271 271 272 272 277 280 279 277 276 279 281 282 281 281 283
283 286 288 287 282 276 277 275 273 274 277 278 278 280 281 282 285 287 284 283 283 283 281 279 275 276 273 271 271 273 272 272 274 278 275 273 273 274 277 281 282 280 283
279 279 280 285 283 278 278 281 281 282 280 281 279 278 279 280 282 282 284 285 283 281 283 284 280 279 273 274 275 273 271 272 272 275 273 274 274 273 274 276 278 278 282
280 278 281 281 284 281 280 279 281 284 281 280 279 281 281 279 281 283 282 284 282 280 279 280 281 279 276 275 275 272 272 272 271 270 268 271 274 274 274 276 277 277 281
276 276 276 277 281 282 283 284 282 283 282 283 284 285 283 279 280 279 278 279 281 278 275 275 275 276 275 272 271 270 272 271 269 266 264 267 271 271 272 277 279 278 278
274 273 272 273 277 279 280 282 281 279 280 282 284 286 287 284 282 279 278 277 277 277 274 273 273 274 276 272 270 272 271 271 269 264 263 263 267 270 272 273 277 281 280
272 271 273 271 273 275 278 280 281 278 278 280 282 282 282 282 282 280 279 277 275 274 272 273 274 276 273 271 272 271 270 270 270 266 265 263 266 270 268 269 274 275 278
271 272 275 275 272 273 274 276 279 278 278 280 281 282 280 279 278 278 279 280 278 276 270 269 273 272 272 271 269 270 271 271 271 269 267 267 268 269 268 272 271 269 274
270 271 273 275 272 272 273 273 274 275 278 280 280 280 278 276 276 276 277 277 279 277 271 268 269 270 269 268 265 266 269 268 269 268 265 267 266 267 270 273 273 273 274
270 272 273 275 274 272 272 273 273 273 275 276 278 278 277 277 277 275 274 274 275 274 271 270 269 268 268 267 265 263 266 265 265 265 264 264 266 266 266 269 272 274 276
272 273 273 273 274 274 272 273 275 275 274 274 275 275 275 274 274 275 274 274 274 274 271 269 269 270 270 269 266 263 262 264 264 262 262 262 264 267 266 268 272 274 274
274 275 275 274 276 276 273 273 276 275 273 272 271 272 272 272 273 273 272 273 274 274 271 270 270 270 270 270 267 264 262 261 262 261 260 260 262 265 267 268 272 275 276
273 274 276 276 277 277 275 275 275 275 273 271 268 268 269 271 273 272 270 271 271 272 271 270 270 269 270 272 268 264 264 262 260 259 259 260 262 265 267 267 269 272 276
274 275 275 277 278 278 277 277 275 273 272 271 268 266 266 267 269 270 269 269 270 269 269 269 272 272 270 269 265 263 264 262 260 259 258 262 264 264 266 268 269 272 275
275 277 277 279 280 280 279 277 275 274 273 270 267 266 265 266 266 267 269 267 268 269 266 265 268 270 269 268 265 263 261 261 260 259 259 262 264 264 264 266 269 272 275
276 277 278 278 278 279 280 278 276 273 272 271 269 267 266 265 264 265 266 266 268 267 268 267 266 267 268 267 265 262 259 260 259 259 261 263 264 264 264 264 266 270 273
277 278 279 280 279 278 279 278 277 274 272 271 269 266 266 265 264 265 265 264 265 267 268 268 266 266 266 265 265 261 260 261 260 260 261 263 263 264 264 265 266 268 270
277 279 279 279 278 278 277 276 277 275 273 271 269 266 265 264 264 265 264 263 264 264 265 265 265 267 267 265 264 262 261 259 259 260 262 263 263 263 263 265 266 267 269
Height
5883 5883 5882 5881 5880 5880 5879 5879 5878 5878 5877 5877 5876 5875 5875 5875 5875 5874 5874 5874 5874 5873 5872 5871 5870 5870 5869 5869 5869 5869 5869 5869 5868 5868 5868 5867 5867 5866 5866 5865 5864 5864 5864
5882 5881 5881 5880 5879 5879 5878 5877 5877 5877 5877 5876 5875 5875 5875 5874 5874 5873 5873 5873 5872 5872 5871 5870 5869 5869 5868 5868 5868 5868 5867 5867 5867 5866 5866 5866 5865 5864 5863 5863 5862 5862 5861
5881 5880 5879 5878 5878 5877 5877 5876 5876 5876 5876 5875 5875 5874 5874 5873 5873 5872 5871 5871 5871 5870 5869 5868 5868 5867 5867 5867 5867 5866 5866 5866 5865 5865 5864 5864 5863 5862 5861 5861 5860 5860 5859
5879 5878 5878 5877 5876 5876 5875 5875 5875 5874 5874 5874 5873 5873 5872 5872 5871 5871 5870 5870 5869 5868 5867 5867 5866 5866 5866 5865 5865 5865 5865 5864 5864 5863 5862 5862 5861 5860 5860 5859 5858 5858 5858
5877 5877 5876 5875 5875 5874 5874 5873 5873 5873 5873 5872 5872 5871 5871 5870 5869 5869 5868 5868 5867 5866 5866 5865 5864 5864 5864 5864 5863 5863 5863 5862 5862 5861 5861 5860 5859 5858 5858 5857 5857 5856 5856
5875 5875 5874 5873 5873 5872 5872 5871 5871 5871 5871 5870 5870 5870 5869 5868 5868 5867 5866 5866 5865 5864 5863 5863 5862 5862 5862 5862 5861 5861 5861 5860 5860 5859 5858 5858 5857 5856 5856 5855 5854 5854 5853
5873 5872 5872 5871 5871 5870 5870 5869 5869 5869 5868 5868 5868 5868 5867 5866 5865 5865 5864 5863 5863 5862 5861 5861 5860 5860 5860 5859 5859 5859 5859 5858 5857 5857 5856 5855 5855 5854 5853 5853 5852 5852 5851
5871 5870 5869 5869 5868 5867 5867 5867 5867 5866 5866 5866 5866 5865 5864 5864 5863 5862 5862 5861 5860 5859 5859 5858 5858 5858 5857 5857 5857 5857 5856 5855 5855 5854 5854 5853 5852 5852 5851 5850 5850 5849 5848
5869 5868 5867 5866 5866 5865 5865 5864 5864 5864 5863 5863 5863 5863 5862 5861 5861 5860 5859 5858 5858 5857 5856 5855 5855 5855 5854 5854 5854 5854 5853 5853 5852 5852 5851 5851 5850 5849 5849 5848 5847 5847 5846
5866 5865 5865 5864 5863 5862 5862 5861 5861 5860 5860 5859 5859 5859 5859 5858 5858 5857 5856 5855 5855 5854 5853 5852 5852 5851 5851 5851 5851 5851 5850 5850 5849 5849 5849 5848 5848 5847 5846 5846 5845 5844 5843
5863 5863 5862 5861 5860 5859 5859 5858 5858 5857 5856 5856 5855 5855 5855 5855 5854 5854 5853 5852 5852 5851 5850 5849 5849 5848 5848 5848 5847 5847 5847 5847 5847 5846 5846 5845 5845 5844 5844 5843 5842 5841 5840
5860 5860 5859 5858 5857 5857 5856 5855 5854 5854 5853 5853 5852 5852 5851 5851 5850 5850 5850 5849 5848 5847 5847 5846 5846 5846 5845 5845 5844 5844 5844 5844 5843 5843 5843 5843 5842 5842 5841 5840 5840 5839 5838
5857 5856 5855 5855 5854 5853 5853 5852 5851 5850 5850 5849 5849 5848 5848 5847 5847 5846 5846 5845 5845 5844 5844 5843 5842 5842 5841 5841 5841 5841 5841 5840 5840 5840 5840 5840 5839 5839 5838 5837 5837 5836 5835
5853 5853 5852 5851 5851 5850 5849 5849 5848 5847 5846 5846 5845 5844 5844 5843 5843 5842 5842 5841 5841 5840 5840 5839 5839 5838 5838 5837 5837 5837 5837 5837 5837 5836 5836 5836 5836 5835 5835 5834 5834 5833 5832
5849 5848 5848 5847 5847 5846 5846 5845 5844 5843 5843 5842 5841 5840 5840 5839 5838 5838 5837 5837 5837 5836 5836 5835 5835 5834 5834 5834 5834 5834 5834 5833 5833 5833 5833 5833 5832 5832 5832 5831 5831 5830 5829
5845 5844 5844 5843 5842 5841 5841 5840 5839 5839 5838 5837 5837 5836 5835 5834 5834 5833 5833 5832 5832 5832 5831 5831 5831 5830 5830 5830 5830 5830 5830 5829 5829 5829 5829 5829 5829 5828 5828 5828 5827 5827 5826
5839 5839 5839 5838 5837 5837 5836 5835 5835 5834 5833 5833 5832 5831 5831 5830 5829 5828 5828 5828 5827 5827 5827 5827 5826 5826 5826 5826 5826 5826 5826 5825 5825 5825 5825 5825 5825 5825 5824 5824 5824 5823 5823
5834 5833 5833 5832 5832 5831 5830 5830 5829 5828 5828 5828 5827 5826 5825 5825 5824 5823 5823 5823 5822 5822 5822 5822 5821 5821 5821 5821 5821 5821 5821 5821 5821 5821 5821 5821 5821 5821 5820 5821 5820 5820 5819
5827 5827 5827 5826 5826 5825 5824 5823 5823 5823 5822 5822 5821 5821 5820 5819 5819 5818 5818 5817 5817 5817 5817 5817 5816 5816 5816 5816 5816 5816 5817 5817 5817 5817 5817 5817 5817 5816 5816 5816 5816 5816 5815
5821 5821 5820 5820 5819 5818 5817 5816 5816 5815 5815 5815 5814 5814 5814 5813 5813 5812 5812 5812 5811 5811 5811 5811 5811 5811 5811 5811 5811 5811 5811 5812 5812 5812 5812 5812 5812 5812 5812 5812 5811 5811 5810
5814 5813 5813 5812 5812 5811 5810 5809 5809 5808 5808 5807 5807 5807 5807 5807 5806 5806 5806 5806 5806 5805 5805 5805 5805 5805 5805 5805 5806 5806 5806 5807 5807 5807 5807 5807 5807 5807 5807 5807 5806 5805 5805
5807 5806 5805 5805 5804 5803 5802 5801 5801 5800 5799 5799 5799 5799 5799 5799 5800 5799 5799 5799 5799 5799 5799 5799 5799 5799 5799 5800 5800 5800 5800 5801 5801 5802 5801 5802 5802 5802 5801 5801 5801 5800 5799
5799 5799 5798 5797 5796 5795 5794 5793 5792 5792 5791 5791 5791 5791 5791 5792 5792 5792 5792 5792 5792 5791 5791 5792 5793 5793 5793 5793 5794 5794 5794 5795 5795 5795 5795 5796 5796 5796 5796 5795 5795 5794 5792
5792 5791 5790 5789 5788 5787 5786 5785 5784 5783 5783 5783 5782 5782 5783 5783 5784 5784 5784 5785 5785 5784 5785 5785 5786 5786 5786 5786 5786 5787 5787 5788 5788 5789 5789 5790 5790 5790 5790 5789 5789 5787 5786
5783 5782 5782 5780 5779 5778 5777 5776 5775 5775 5774 5774 5774 5774 5774 5774 5775 5775 5776 5777 5777 5777 5777 5778 5778 5778 5778 5778 5779 5780 5780 5781 5781 5782 5782 5783 5783 5783 5783 5783 5782 5781 5780
5775 5774 5773 5772 5771 5770 5768 5767 5767 5766 5766 5766 5766 5766 5766 5766 5767 5767 5768 5769 5769 5769 5769 5770 5770 5770 5770 5771 5771 5772 5773 5773 5774 5775 5775 5775 5776 5775 5776 5776 5775 5775 5774